PGT375 LTFJ-LDZA

Flight info

Callsign PGT375
Flight time 1h 50m
Altitude 36000
Route SADIK DCT AFGAR DCT ETOPO DCT BEBRU DCT PENEV DCT IDABO DCT DIMSI DCT SANWI DCT NOVLO
Aircraft A320/M-SDE3FGHIRWY/LB1

Departure

Time 2026-05-07 09:40
Airport Istanbul Sabiha Gökçen International Airport (LTFJ)

Arrival

Time 2026-05-07 11:30
Airport Zagreb Franjo Tuđman International Airport (LDZA)
Time Latitude Longitude Altitude Speed Heading
2026-05-07 09:09 40.90537 29.31456 321 ft 0 kts 333°
2026-05-07 09:31 40.90533 29.31459 321 ft 2 kts 333°
2026-05-07 09:31 40.90519 29.31468 321 ft 2 kts 333°
2026-05-07 09:31 40.90509 29.31475 321 ft 1 kts 333°
2026-05-07 09:31 40.90496 29.31484 321 ft 2 kts 333°
2026-05-07 09:32 40.90488 29.31489 321 ft 2 kts 333°
2026-05-07 09:32 40.90477 29.31497 321 ft 1 kts 348°
2026-05-07 09:32 40.90471 29.31496 321 ft 1 kts 30°
2026-05-07 09:33 40.90466 29.31491 321 ft 0 kts 67°
2026-05-07 09:33 40.90464 29.31483 321 ft 0 kts 64°
2026-05-07 09:35 40.90471 29.31501 321 ft 6 kts 63°
2026-05-07 09:36 40.90506 29.31597 321 ft 16 kts 64°
2026-05-07 09:36 40.90567 29.31759 321 ft 21 kts 63°
2026-05-07 09:36 40.90628 29.31926 321 ft 19 kts 63°
2026-05-07 09:36 40.90689 29.32092 321 ft 20 kts 65°
2026-05-07 09:37 40.90736 29.32235 321 ft 12 kts 91°
2026-05-07 09:37 40.90677 29.32300 321 ft 12 kts 155°
2026-05-07 09:37 40.90602 29.32377 321 ft 14 kts 112°
2026-05-07 09:37 40.90517 29.32461 321 ft 17 kts 156°
2026-05-07 09:38 40.90451 29.32500 321 ft 3 kts 181°
2026-05-07 09:38 40.90424 29.32473 321 ft 6 kts 242°
2026-05-07 09:38 40.90418 29.32453 321 ft 0 kts 245°
2026-05-07 09:38 40.90417 29.32450 321 ft 0 kts 245°
2026-05-07 09:39 40.90416 29.32448 321 ft 0 kts 245°
2026-05-07 09:39 40.90413 29.32437 321 ft 10 kts 245°
2026-05-07 09:39 40.90260 29.32023 321 ft 88 kts 243°
2026-05-07 09:39 40.89894 29.31021 321 ft 153 kts 243°
2026-05-07 09:40 40.89400 29.29658 776 ft 169 kts 244°
2026-05-07 09:40 40.88929 29.28237 1476 ft 174 kts 245°
2026-05-07 09:40 40.88405 29.26786 2211 ft 178 kts 243°
2026-05-07 09:40 40.87850 29.25261 2653 ft 195 kts 243°
2026-05-07 09:41 40.87233 29.23560 3130 ft 216 kts 243°
2026-05-07 09:41 40.86554 29.21711 3671 ft 235 kts 243°
2026-05-07 09:41 40.85827 29.19708 4330 ft 247 kts 243°
2026-05-07 09:41 40.85074 29.17644 5127 ft 253 kts 242°
2026-05-07 09:42 40.84315 29.15569 5941 ft 256 kts 242°
2026-05-07 09:42 40.83529 29.13426 6718 ft 261 kts 242°
2026-05-07 09:42 40.82730 29.11229 7331 ft 272 kts 242°
2026-05-07 09:42 40.81912 29.08976 8040 ft 278 kts 242°
2026-05-07 09:43 40.81068 29.06657 8787 ft 282 kts 242°
2026-05-07 09:43 40.80222 29.04338 9520 ft 286 kts 242°
2026-05-07 09:43 40.79358 29.01972 10244 ft 290 kts 242°
2026-05-07 09:43 40.78468 28.99539 10725 ft 303 kts 242°
2026-05-07 09:44 40.77511 28.96929 11043 ft 322 kts 242°
2026-05-07 09:44 40.76785 28.94810 11311 ft 334 kts 250°
2026-05-07 09:44 40.76461 28.91693 11862 ft 346 kts 272°
2026-05-07 09:44 40.77052 28.88624 12498 ft 353 kts 294°
2026-05-07 09:45 40.78442 28.85935 13171 ft 356 kts 308°
2026-05-07 09:45 40.80031 28.83460 13815 ft 358 kts 309°
2026-05-07 09:45 40.81657 28.80943 14443 ft 360 kts 309°
2026-05-07 09:45 40.83287 28.78413 15052 ft 363 kts 309°
2026-05-07 09:46 40.84935 28.75848 15620 ft 365 kts 309°
2026-05-07 09:46 40.86565 28.73309 16154 ft 368 kts 309°
2026-05-07 09:46 40.88230 28.70712 16689 ft 371 kts 308°
2026-05-07 09:46 40.89922 28.68070 17218 ft 374 kts 308°
2026-05-07 09:47 40.91608 28.65433 17728 ft 377 kts 308°
2026-05-07 09:47 40.93306 28.62777 18224 ft 379 kts 308°
2026-05-07 09:47 40.94999 28.60127 18706 ft 382 kts 308°
2026-05-07 09:47 40.96709 28.57446 19172 ft 385 kts 308°
2026-05-07 09:48 40.97394 28.56373 19342 ft 386 kts 308°
2026-05-07 09:48 40.99144 28.53626 19730 ft 391 kts 308°
2026-05-07 09:48 41.00918 28.50839 20100 ft 396 kts 308°
2026-05-07 09:48 41.02694 28.48047 20464 ft 400 kts 308°
2026-05-07 09:49 41.04497 28.45210 20821 ft 405 kts 308°
2026-05-07 09:49 41.06294 28.42380 21168 ft 409 kts 308°
2026-05-07 09:49 41.08137 28.39475 21518 ft 414 kts 309°
2026-05-07 09:49 41.10008 28.36522 21871 ft 418 kts 309°
2026-05-07 09:50 41.10615 28.35565 21980 ft 419 kts 309°
2026-05-07 09:50 41.11266 28.34535 22096 ft 421 kts 308°
2026-05-07 09:50 41.13106 28.31628 22433 ft 424 kts 308°
2026-05-07 09:50 41.15033 28.28579 22827 ft 426 kts 308°
2026-05-07 09:51 41.16931 28.25574 23215 ft 428 kts 308°
2026-05-07 09:51 41.18840 28.22547 23595 ft 429 kts 308°
2026-05-07 09:51 41.20764 28.19494 23965 ft 431 kts 308°
2026-05-07 09:51 41.22626 28.16536 24309 ft 433 kts 308°
2026-05-07 09:52 41.24564 28.13455 24666 ft 435 kts 308°
2026-05-07 09:52 41.26509 28.10358 25016 ft 436 kts 308°
2026-05-07 09:52 41.28460 28.07250 25348 ft 438 kts 308°
2026-05-07 09:52 41.30409 28.04142 25679 ft 440 kts 307°
2026-05-07 09:53 41.32373 28.01005 26004 ft 441 kts 307°
2026-05-07 09:53 41.34345 27.97855 26328 ft 443 kts 307°
2026-05-07 09:53 41.36315 27.94701 26635 ft 444 kts 307°
2026-05-07 09:53 41.38273 27.91567 26945 ft 446 kts 307°
2026-05-07 09:54 41.40265 27.88373 27246 ft 447 kts 307°
2026-05-07 09:54 41.42240 27.85202 27545 ft 449 kts 307°
2026-05-07 09:54 41.44276 27.82007 27840 ft 451 kts 311°
2026-05-07 09:54 41.46595 27.79219 28113 ft 456 kts 321°
2026-05-07 09:55 41.49169 27.76746 28387 ft 458 kts 322°
2026-05-07 09:55 41.51746 27.74304 28657 ft 459 kts 322°
2026-05-07 09:55 41.54343 27.71838 28924 ft 460 kts 322°
2026-05-07 09:55 41.56945 27.69362 29185 ft 461 kts 322°
2026-05-07 09:56 41.59568 27.66861 29440 ft 463 kts 322°
2026-05-07 09:56 41.62072 27.64471 29673 ft 464 kts 322°
2026-05-07 09:56 41.64668 27.61991 29913 ft 465 kts 322°
2026-05-07 09:56 41.67332 27.59443 30161 ft 466 kts 322°
2026-05-07 09:57 41.69933 27.56953 30402 ft 467 kts 322°
2026-05-07 09:57 41.72567 27.54428 30628 ft 468 kts 322°
2026-05-07 09:57 41.75233 27.51870 30846 ft 469 kts 322°
2026-05-07 09:57 41.77875 27.49332 31074 ft 470 kts 322°
2026-05-07 09:58 41.80519 27.46790 31284 ft 471 kts 322°
2026-05-07 09:58 41.83161 27.44247 31538 ft 470 kts 322°
2026-05-07 09:58 41.85803 27.41702 31869 ft 468 kts 321°
2026-05-07 09:58 41.88444 27.39154 32170 ft 466 kts 321°
2026-05-07 09:59 41.91051 27.36637 32460 ft 464 kts 321°
2026-05-07 09:59 41.93493 27.34277 32714 ft 463 kts 321°
2026-05-07 09:59 41.96105 27.31751 32999 ft 461 kts 321°
2026-05-07 09:59 41.98664 27.29272 33263 ft 460 kts 321°
2026-05-07 10:00 42.01250 27.26765 33523 ft 459 kts 321°
2026-05-07 10:00 42.03865 27.24228 33778 ft 458 kts 321°
2026-05-07 10:00 42.06337 27.21639 34012 ft 454 kts 314°
2026-05-07 10:00 42.08562 27.18623 34219 ft 451 kts 308°
2026-05-07 10:01 42.10663 27.15466 34419 ft 450 kts 308°
2026-05-07 10:01 42.12741 27.12338 34612 ft 450 kts 308°
2026-05-07 10:01 42.14818 27.09212 34856 ft 448 kts 308°
2026-05-07 10:01 42.16866 27.06132 35174 ft 444 kts 308°
2026-05-07 10:02 42.18936 27.03024 35484 ft 440 kts 308°
2026-05-07 10:02 42.20959 26.99956 35769 ft 437 kts 309°
2026-05-07 10:02 42.22971 26.96914 36048 ft 434 kts 309°
2026-05-07 10:02 42.24977 26.93883 36157 ft 434 kts 309°
2026-05-07 10:03 42.26973 26.90863 36170 ft 432 kts 309°
2026-05-07 10:03 42.30940 26.84852 36170 ft 427 kts 309°
2026-05-07 10:04 42.34855 26.78902 36166 ft 428 kts 309°
2026-05-07 10:04 42.38798 26.72904 36170 ft 429 kts 310°
2026-05-07 10:05 42.42747 26.66884 36171 ft 429 kts 309°
2026-05-07 10:05 42.46715 26.60819 36167 ft 429 kts 310°
2026-05-07 10:06 42.50657 26.54784 36149 ft 429 kts 309°
2026-05-07 10:06 42.54192 26.48369 36135 ft 427 kts 296°
2026-05-07 10:07 42.56296 26.40885 36118 ft 425 kts 287°
2026-05-07 10:07 42.58015 26.33668 36115 ft 425 kts 287°
2026-05-07 10:08 42.59829 26.26052 36110 ft 425 kts 287°
2026-05-07 10:08 42.61641 26.18431 36110 ft 425 kts 287°
2026-05-07 10:09 42.63437 26.10849 36107 ft 424 kts 287°
2026-05-07 10:09 42.65232 26.03249 36103 ft 424 kts 287°
2026-05-07 10:10 42.67034 25.95634 36103 ft 424 kts 287°
2026-05-07 10:10 42.68831 25.87976 36102 ft 424 kts 287°
2026-05-07 10:11 42.70607 25.80356 36100 ft 424 kts 287°
2026-05-07 10:11 42.72374 25.72760 36101 ft 424 kts 287°
2026-05-07 10:12 42.74151 25.65103 36103 ft 424 kts 287°
2026-05-07 10:12 42.75917 25.57468 36103 ft 424 kts 287°
2026-05-07 10:13 42.77669 25.49868 36105 ft 424 kts 287°
2026-05-07 10:13 42.79431 25.42201 36105 ft 424 kts 287°
2026-05-07 10:14 42.81175 25.34587 36108 ft 424 kts 286°
2026-05-07 10:14 42.82671 25.28034 36108 ft 424 kts 286°
2026-05-07 10:15 42.84415 25.20368 36109 ft 424 kts 286°
2026-05-07 10:15 42.86154 25.12698 36115 ft 424 kts 286°
2026-05-07 10:16 42.87891 25.05010 36122 ft 424 kts 286°
2026-05-07 10:16 42.89606 24.97395 36128 ft 423 kts 285°
2026-05-07 10:17 42.91318 24.89766 36122 ft 422 kts 285°
2026-05-07 10:17 42.93023 24.82138 36111 ft 422 kts 285°
2026-05-07 10:18 42.94733 24.74463 36101 ft 422 kts 285°
2026-05-07 10:18 42.96440 24.66772 36097 ft 423 kts 285°
2026-05-07 10:19 42.98134 24.59116 36095 ft 425 kts 285°
2026-05-07 10:19 42.99839 24.51381 36103 ft 426 kts 285°
2026-05-07 10:20 43.01541 24.43630 36120 ft 428 kts 285°
2026-05-07 10:20 43.03249 24.35826 36143 ft 429 kts 285°
2026-05-07 10:21 43.04956 24.27996 36167 ft 431 kts 284°
2026-05-07 10:21 43.06658 24.20159 36190 ft 433 kts 284°
2026-05-07 10:22 43.08365 24.12274 36199 ft 433 kts 284°
2026-05-07 10:22 43.10076 24.04338 36201 ft 434 kts 284°
2026-05-07 10:23 43.11768 23.96461 36203 ft 433 kts 284°
2026-05-07 10:23 43.13455 23.88578 36195 ft 433 kts 284°
2026-05-07 10:24 43.15151 23.80623 36185 ft 433 kts 284°
2026-05-07 10:24 43.16873 23.72758 36180 ft 432 kts 285°
2026-05-07 10:25 43.18601 23.64874 36169 ft 432 kts 285°
2026-05-07 10:25 43.20309 23.57043 36162 ft 432 kts 285°
2026-05-07 10:26 43.22023 23.49149 36158 ft 432 kts 285°
2026-05-07 10:26 43.23725 23.41281 36156 ft 432 kts 285°
2026-05-07 10:27 43.25427 23.33380 36163 ft 431 kts 284°
2026-05-07 10:27 43.27119 23.25502 36167 ft 431 kts 284°
2026-05-07 10:28 43.28812 23.17587 36165 ft 432 kts 284°
2026-05-07 10:28 43.30495 23.09690 36168 ft 431 kts 284°
2026-05-07 10:29 43.32160 23.01829 36168 ft 431 kts 284°
2026-05-07 10:29 43.33833 22.93908 36182 ft 430 kts 285°
2026-05-07 10:30 43.36314 22.82111 36189 ft 428 kts 287°
2026-05-07 10:30 43.38225 22.74407 36175 ft 427 kts 294°
2026-05-07 10:31 43.40690 22.66974 36161 ft 427 kts 295°
2026-05-07 10:31 43.43146 22.59539 36156 ft 426 kts 295°
2026-05-07 10:32 43.45600 22.52092 36153 ft 426 kts 295°
2026-05-07 10:32 43.48032 22.44693 36149 ft 426 kts 295°
2026-05-07 10:33 43.50468 22.37259 36152 ft 426 kts 295°
2026-05-07 10:33 43.51766 22.33290 36154 ft 426 kts 294°
2026-05-07 10:34 43.54384 22.25268 36160 ft 427 kts 294°
2026-05-07 10:34 43.56798 22.17849 36166 ft 427 kts 294°
2026-05-07 10:35 43.59235 22.10338 36171 ft 427 kts 294°
2026-05-07 10:35 43.61646 22.02888 36176 ft 427 kts 294°
2026-05-07 10:36 43.64060 21.95406 36179 ft 427 kts 294°
2026-05-07 10:36 43.66472 21.87908 36177 ft 427 kts 294°
2026-05-07 10:37 43.68872 21.80429 36174 ft 427 kts 294°
2026-05-07 10:37 43.71269 21.72927 36170 ft 427 kts 294°
2026-05-07 10:38 43.73658 21.65443 36171 ft 427 kts 294°
2026-05-07 10:38 43.76057 21.57905 36172 ft 427 kts 294°
2026-05-07 10:39 43.78442 21.50387 36169 ft 427 kts 294°
2026-05-07 10:39 43.80803 21.42923 36167 ft 427 kts 294°
2026-05-07 10:40 43.83173 21.35406 36164 ft 427 kts 294°
2026-05-07 10:40 43.85543 21.27871 36149 ft 427 kts 293°
2026-05-07 10:41 43.87918 21.20294 36137 ft 427 kts 294°
2026-05-07 10:41 43.90287 21.12721 36131 ft 427 kts 294°
2026-05-07 10:42 43.92639 21.05174 36144 ft 426 kts 294°
2026-05-07 10:42 43.94987 20.97620 36173 ft 423 kts 295°
2026-05-07 10:43 43.97290 20.90190 36175 ft 421 kts 297°
2026-05-07 10:43 43.99583 20.82770 36147 ft 418 kts 297°
2026-05-07 10:44 44.01864 20.75370 36114 ft 417 kts 297°
2026-05-07 10:44 44.04141 20.67959 36092 ft 416 kts 297°
2026-05-07 10:45 44.06407 20.60566 36085 ft 415 kts 297°
2026-05-07 10:45 44.08654 20.53210 36085 ft 415 kts 297°
2026-05-07 10:46 44.10852 20.45998 36097 ft 416 kts 297°
2026-05-07 10:46 44.13117 20.38542 36110 ft 417 kts 297°
2026-05-07 10:47 44.15322 20.31263 36123 ft 418 kts 296°
2026-05-07 10:47 44.17565 20.23838 36133 ft 418 kts 296°
2026-05-07 10:48 44.19816 20.16365 36139 ft 419 kts 296°
2026-05-07 10:48 44.22064 20.08877 36137 ft 419 kts 296°
2026-05-07 10:49 44.24303 20.01400 36134 ft 419 kts 296°
2026-05-07 10:49 44.26539 19.93911 36127 ft 419 kts 296°
2026-05-07 10:50 44.28777 19.86390 36121 ft 419 kts 296°
2026-05-07 10:50 44.30995 19.78918 36112 ft 419 kts 296°
2026-05-07 10:51 44.33216 19.71411 36109 ft 419 kts 296°
2026-05-07 10:51 44.35434 19.63895 36106 ft 418 kts 296°
2026-05-07 10:52 44.37631 19.56427 36106 ft 418 kts 296°
2026-05-07 10:52 44.39845 19.48875 36106 ft 418 kts 296°
2026-05-07 10:53 44.42031 19.41400 36105 ft 418 kts 296°
2026-05-07 10:53 44.44219 19.33894 36101 ft 418 kts 296°
2026-05-07 10:54 44.46411 19.26349 36098 ft 418 kts 296°
2026-05-07 10:54 44.48607 19.18778 36102 ft 418 kts 296°
2026-05-07 10:55 44.50778 19.11259 36138 ft 416 kts 298°
2026-05-07 10:55 44.52922 19.03811 36159 ft 411 kts 299°
2026-05-07 10:56 44.55040 18.96428 36157 ft 404 kts 302°
2026-05-07 10:56 44.57097 18.89239 36110 ft 392 kts 302°
2026-05-07 10:57 44.59110 18.82194 36108 ft 391 kts 302°
2026-05-07 10:57 44.61136 18.75089 36106 ft 393 kts 302°
2026-05-07 10:58 44.63148 18.68002 36108 ft 394 kts 302°
2026-05-07 10:58 44.65164 18.60878 36107 ft 392 kts 302°
2026-05-07 10:59 44.67167 18.53780 36100 ft 391 kts 302°
2026-05-07 10:59 44.69170 18.46666 36090 ft 391 kts 302°
2026-05-07 11:00 44.71153 18.39600 36080 ft 391 kts 302°
2026-05-07 11:00 44.73139 18.32505 36073 ft 392 kts 301°
2026-05-07 11:01 44.75024 18.25748 36082 ft 392 kts 301°
2026-05-07 11:01 44.77008 18.18617 36099 ft 392 kts 301°
2026-05-07 11:02 44.78990 18.11473 35971 ft 394 kts 301°
2026-05-07 11:02 44.79976 18.07904 35724 ft 388 kts 301°
2026-05-07 11:02 44.80943 18.04395 35301 ft 384 kts 301°
2026-05-07 11:03 44.81914 18.00875 34855 ft 381 kts 302°
2026-05-07 11:03 44.82861 17.97435 34443 ft 376 kts 301°
2026-05-07 11:03 44.83789 17.94059 34042 ft 372 kts 302°
2026-05-07 11:03 44.84724 17.90654 33639 ft 367 kts 302°
2026-05-07 11:04 44.85637 17.87328 33249 ft 363 kts 302°
2026-05-07 11:04 44.86533 17.84058 32857 ft 359 kts 302°
2026-05-07 11:04 44.87428 17.80789 32469 ft 355 kts 302°
2026-05-07 11:04 44.88312 17.77562 32082 ft 355 kts 302°
2026-05-07 11:05 44.89206 17.74299 31688 ft 355 kts 302°
2026-05-07 11:05 44.90094 17.71048 31290 ft 356 kts 302°
2026-05-07 11:05 44.90973 17.67824 30899 ft 357 kts 302°
2026-05-07 11:05 44.91867 17.64535 30496 ft 358 kts 302°
2026-05-07 11:06 44.92748 17.61295 30097 ft 359 kts 302°
2026-05-07 11:06 44.93649 17.57971 29681 ft 359 kts 302°
2026-05-07 11:06 44.94540 17.54678 29271 ft 359 kts 302°
2026-05-07 11:06 44.95423 17.51409 28859 ft 358 kts 302°
2026-05-07 11:07 44.96303 17.48152 28450 ft 357 kts 302°
2026-05-07 11:07 44.97190 17.44860 28032 ft 356 kts 302°
2026-05-07 11:07 44.98065 17.41612 27607 ft 356 kts 301°
2026-05-07 11:07 44.98957 17.38304 27188 ft 365 kts 301°
2026-05-07 11:08 44.99863 17.34942 26754 ft 371 kts 300°
2026-05-07 11:08 45.00784 17.31507 26307 ft 373 kts 299°
2026-05-07 11:08 45.01705 17.28063 25856 ft 373 kts 299°
2026-05-07 11:08 45.02611 17.24664 25414 ft 371 kts 298°
2026-05-07 11:09 45.03512 17.21284 24971 ft 368 kts 298°
2026-05-07 11:09 45.04406 17.17925 24533 ft 365 kts 298°
2026-05-07 11:09 45.05296 17.14579 24095 ft 361 kts 298°
2026-05-07 11:09 45.06181 17.11318 23666 ft 357 kts 300°
2026-05-07 11:10 45.07191 17.08120 23234 ft 352 kts 301°
2026-05-07 11:10 45.08196 17.05005 22813 ft 349 kts 301°
2026-05-07 11:10 45.09190 17.01913 22394 ft 346 kts 300°
2026-05-07 11:10 45.10156 16.98907 21985 ft 342 kts 300°
2026-05-07 11:11 45.11085 16.96010 21592 ft 340 kts 300°
2026-05-07 11:11 45.12051 16.92998 21180 ft 337 kts 300°
2026-05-07 11:11 45.13020 16.89970 20763 ft 334 kts 300°
2026-05-07 11:11 45.13967 16.87009 20355 ft 332 kts 300°
2026-05-07 11:12 45.14913 16.84047 19948 ft 329 kts 300°
2026-05-07 11:12 45.15853 16.81103 19543 ft 327 kts 300°
2026-05-07 11:12 45.16784 16.78182 19142 ft 326 kts 300°
2026-05-07 11:12 45.17707 16.75285 18740 ft 325 kts 300°
2026-05-07 11:13 45.18643 16.72342 18331 ft 325 kts 300°
2026-05-07 11:13 45.19562 16.69453 17922 ft 324 kts 300°
2026-05-07 11:13 45.20757 16.66836 17507 ft 315 kts 318°
2026-05-07 11:13 45.22349 16.64716 17114 ft 313 kts 321°
2026-05-07 11:14 45.23960 16.62618 16714 ft 312 kts 321°
2026-05-07 11:14 45.25542 16.60554 16327 ft 312 kts 321°
2026-05-07 11:14 45.27139 16.58468 15945 ft 311 kts 320°
2026-05-07 11:14 45.28706 16.56419 15526 ft 309 kts 320°
2026-05-07 11:15 45.30288 16.54349 15080 ft 309 kts 320°
2026-05-07 11:15 45.31858 16.52292 14639 ft 308 kts 320°
2026-05-07 11:15 45.33440 16.50220 14198 ft 308 kts 320°
2026-05-07 11:15 45.34996 16.48135 13762 ft 308 kts 314°
2026-05-07 11:16 45.36111 16.45548 13305 ft 312 kts 290°
2026-05-07 11:16 45.36398 16.42517 12877 ft 315 kts 266°
2026-05-07 11:16 45.35789 16.39543 12466 ft 317 kts 242°
2026-05-07 11:16 45.34430 16.37085 12094 ft 316 kts 228°
2026-05-07 11:17 45.32938 16.34828 11732 ft 313 kts 227°
2026-05-07 11:17 45.31461 16.32592 11336 ft 312 kts 227°
2026-05-07 11:17 45.29977 16.30342 10936 ft 311 kts 227°
2026-05-07 11:17 45.28501 16.28103 10544 ft 310 kts 227°
2026-05-07 11:18 45.27053 16.25904 10264 ft 304 kts 227°
2026-05-07 11:18 45.25613 16.23719 10081 ft 298 kts 227°
2026-05-07 11:18 45.24446 16.21331 9904 ft 296 kts 250°
2026-05-07 11:18 45.24146 16.18494 9722 ft 290 kts 277°
2026-05-07 11:19 45.24778 16.15826 9373 ft 285 kts 305°
2026-05-07 11:19 45.26105 16.13771 9029 ft 281 kts 318°
2026-05-07 11:19 45.27522 16.11898 8690 ft 280 kts 318°
2026-05-07 11:19 45.28953 16.09997 8357 ft 279 kts 318°
2026-05-07 11:20 45.30359 16.08125 8110 ft 274 kts 318°
2026-05-07 11:20 45.31737 16.06290 7813 ft 274 kts 318°
2026-05-07 11:20 45.33136 16.04425 7518 ft 275 kts 318°
2026-05-07 11:20 45.34531 16.02559 7250 ft 275 kts 317°
2026-05-07 11:21 45.35922 16.00702 6987 ft 275 kts 318°
2026-05-07 11:21 45.37307 15.98854 6724 ft 274 kts 318°
2026-05-07 11:21 45.38691 15.97002 6464 ft 274 kts 317°
2026-05-07 11:21 45.40089 15.95134 6200 ft 273 kts 317°
2026-05-07 11:22 45.41463 15.93300 5938 ft 273 kts 317°
2026-05-07 11:22 45.42845 15.91455 5677 ft 273 kts 317°
2026-05-07 11:22 45.44223 15.89612 5418 ft 272 kts 317°
2026-05-07 11:22 45.45614 15.87749 5154 ft 272 kts 317°
2026-05-07 11:23 45.46976 15.85921 4899 ft 271 kts 317°
2026-05-07 11:23 45.48345 15.84084 4641 ft 271 kts 317°
2026-05-07 11:23 45.49723 15.82233 4385 ft 270 kts 317°
2026-05-07 11:23 45.51080 15.80409 4227 ft 263 kts 317°
2026-05-07 11:24 45.52443 15.78761 4023 ft 256 kts 333°
2026-05-07 11:24 45.54103 15.78168 3771 ft 241 kts
2026-05-07 11:24 45.55641 15.78850 3545 ft 232 kts 35°
2026-05-07 11:24 45.56806 15.80413 3310 ft 224 kts 48°
2026-05-07 11:25 45.57842 15.81991 3091 ft 215 kts 47°
2026-05-07 11:25 45.58833 15.83484 3039 ft 198 kts 48°
2026-05-07 11:25 45.59754 15.84870 3027 ft 188 kts 48°
2026-05-07 11:25 45.60677 15.86204 3015 ft 189 kts 46°
2026-05-07 11:26 45.61595 15.87535 3012 ft 188 kts 47°
2026-05-07 11:26 45.62500 15.88894 3007 ft 190 kts 48°
2026-05-07 11:26 45.63387 15.90253 3012 ft 182 kts 49°
2026-05-07 11:26 45.64239 15.91564 2897 ft 178 kts 49°
2026-05-07 11:27 45.65089 15.92858 2683 ft 175 kts 48°
2026-05-07 11:27 45.65885 15.94069 2477 ft 157 kts 48°
2026-05-07 11:27 45.66607 15.95174 2244 ft 149 kts 48°
2026-05-07 11:27 45.67315 15.96248 2032 ft 147 kts 49°
2026-05-07 11:28 45.68014 15.97316 1847 ft 147 kts 48°
2026-05-07 11:28 45.68715 15.98385 1659 ft 148 kts 48°
2026-05-07 11:28 45.69423 15.99458 1465 ft 148 kts 48°
2026-05-07 11:28 45.70123 16.00530 1263 ft 146 kts 48°
2026-05-07 11:29 45.70822 16.01594 1064 ft 147 kts 47°
2026-05-07 11:29 45.71523 16.02650 865 ft 145 kts 48°
2026-05-07 11:29 45.72204 16.03700 668 ft 143 kts 49°
2026-05-07 11:29 45.72889 16.04738 496 ft 145 kts 47°
2026-05-07 11:30 45.73526 16.05713 367 ft 141 kts 48°
2026-05-07 11:30 45.74070 16.06535 362 ft 69 kts 48°
2026-05-07 11:30 45.74276 16.06856 362 ft 37 kts 45°
2026-05-07 11:30 45.74448 16.07115 362 ft 37 kts 47°
2026-05-07 11:31 45.74625 16.07390 362 ft 27 kts 47°
2026-05-07 11:31 45.74677 16.07498 362 ft 4 kts 100°
2026-05-07 11:31 45.74649 16.07550 362 ft 9 kts 137°
2026-05-07 11:31 45.74587 16.07633 362 ft 14 kts 136°
2026-05-07 11:32 45.74436 16.07836 362 ft 15 kts 135°
2026-05-07 11:32 45.74357 16.07898 362 ft 11 kts 199°
2026-05-07 11:32 45.74301 16.07834 362 ft 11 kts 227°
2026-05-07 11:33 45.74266 16.07801 362 ft 1 kts 173°
2026-05-07 11:33 45.74258 16.07806 362 ft 1 kts 143°
2026-05-07 11:33 45.74247 16.07821 362 ft 3 kts 136°
2026-05-07 11:33 45.74222 16.07853 362 ft 5 kts 137°
2026-05-07 11:34 45.74207 16.07873 362 ft 0 kts 137°